AUA25M LOWW-EDDH

Flight info

Callsign AUA25M
Flight time 1h 26m
Altitude 36000
Route LANUX2C/29 LANUX DCT VLM DCT HDO DCT OSKAN M748 BOLBO DCT ESIKA DCT SOGMA M748 RARUP RARUP3P
Aircraft A320/M-SDE2E3FGHIJ1RWXY/LB1

Departure

Time 2026-04-24 19:16
Airport Vienna International Airport (LOWW)

Arrival

Time 2026-04-24 20:42
Airport Hamburg Helmut Schmidt Airport (EDDH)
Time Latitude Longitude Altitude Speed Heading
2026-04-24 18:54 48.11744 16.56681 609 ft 0 kts 25°
2026-04-24 19:06 48.11736 16.56676 610 ft 3 kts 26°
2026-04-24 19:06 48.11718 16.56662 621 ft 3 kts 29°
2026-04-24 19:06 48.11700 16.56647 622 ft 3 kts 37°
2026-04-24 19:06 48.11686 16.56627 620 ft 3 kts 60°
2026-04-24 19:07 48.11681 16.56607 621 ft 2 kts 112°
2026-04-24 19:07 48.11682 16.56603 620 ft 0 kts 116°
2026-04-24 19:09 48.11680 16.56607 610 ft 3 kts 116°
2026-04-24 19:09 48.11649 16.56705 620 ft 14 kts 116°
2026-04-24 19:09 48.11608 16.56830 613 ft 13 kts 115°
2026-04-24 19:10 48.11573 16.56942 616 ft 11 kts 115°
2026-04-24 19:10 48.11540 16.57040 618 ft 10 kts 117°
2026-04-24 19:10 48.11511 16.57126 610 ft 9 kts 117°
2026-04-24 19:10 48.11486 16.57201 623 ft 8 kts 116°
2026-04-24 19:11 48.11463 16.57270 614 ft 8 kts 115°
2026-04-24 19:11 48.11407 16.57386 614 ft 18 kts 161°
2026-04-24 19:11 48.11292 16.57315 624 ft 19 kts 205°
2026-04-24 19:11 48.11193 16.57311 618 ft 15 kts 117°
2026-04-24 19:12 48.11151 16.57456 617 ft 15 kts 116°
2026-04-24 19:12 48.11097 16.57615 623 ft 16 kts 124°
2026-04-24 19:12 48.11029 16.57637 610 ft 0 kts 208°
2026-04-24 19:15 48.10976 16.57594 618 ft 21 kts 208°
2026-04-24 19:15 48.10947 16.57453 618 ft 18 kts 291°
2026-04-24 19:15 48.11097 16.56981 621 ft 95 kts 295°
2026-04-24 19:16 48.12056 16.54079 1304 ft 179 kts 289°
2026-04-24 19:16 48.12036 16.52261 2101 ft 183 kts 250°
2026-04-24 19:16 48.11167 16.50785 2639 ft 202 kts 221°
2026-04-24 19:17 48.09967 16.49493 3060 ft 219 kts 219°
2026-04-24 19:17 48.08700 16.48179 3765 ft 223 kts 219°
2026-04-24 19:17 48.07581 16.46613 4614 ft 219 kts 241°
2026-04-24 19:17 48.06848 16.44510 5064 ft 239 kts 250°
2026-04-24 19:18 48.06135 16.42138 5632 ft 257 kts 250°
2026-04-24 19:18 48.05403 16.39670 6528 ft 261 kts 250°
2026-04-24 19:18 48.04659 16.37176 7436 ft 265 kts 250°
2026-04-24 19:18 48.03902 16.34627 8284 ft 271 kts 253°
2026-04-24 19:19 48.03423 16.31905 9122 ft 271 kts 267°
2026-04-24 19:19 48.03406 16.29090 9967 ft 273 kts 278°
2026-04-24 19:19 48.03543 16.26196 10476 ft 290 kts 277°
2026-04-24 19:19 48.03827 16.23107 10884 ft 307 kts 287°
2026-04-24 19:20 48.04582 16.20109 11585 ft 311 kts 300°
2026-04-24 19:20 48.05785 16.17410 12351 ft 314 kts 310°
2026-04-24 19:20 48.07173 16.14851 13118 ft 319 kts 310°
2026-04-24 19:20 48.08585 16.12253 13864 ft 324 kts 310°
2026-04-24 19:21 48.10018 16.09609 14525 ft 329 kts 310°
2026-04-24 19:21 48.11469 16.06943 15207 ft 332 kts 313°
2026-04-24 19:21 48.13146 16.04610 15848 ft 335 kts 324°
2026-04-24 19:21 48.15173 16.02859 16540 ft 337 kts 337°
2026-04-24 19:22 48.16655 16.02037 17002 ft 339 kts 340°
2026-04-24 19:22 48.19616 16.00479 17935 ft 343 kts 340°
2026-04-24 19:22 48.21876 15.99275 18600 ft 346 kts 340°
2026-04-24 19:22 48.24150 15.98058 19165 ft 349 kts 340°
2026-04-24 19:23 48.26458 15.96818 19723 ft 353 kts 340°
2026-04-24 19:23 48.28781 15.95567 20280 ft 357 kts 340°
2026-04-24 19:23 48.31128 15.94302 20839 ft 360 kts 340°
2026-04-24 19:23 48.33498 15.93028 21399 ft 363 kts 340°
2026-04-24 19:24 48.35891 15.91744 21944 ft 367 kts 340°
2026-04-24 19:24 48.38306 15.90447 22471 ft 370 kts 340°
2026-04-24 19:24 48.39915 15.89580 22815 ft 372 kts 340°
2026-04-24 19:24 48.42367 15.88257 23347 ft 375 kts 340°
2026-04-24 19:25 48.44830 15.86924 23826 ft 378 kts 340°
2026-04-24 19:25 48.47316 15.85576 24265 ft 380 kts 340°
2026-04-24 19:25 48.49816 15.84221 24729 ft 383 kts 340°
2026-04-24 19:25 48.52332 15.82858 25163 ft 385 kts 340°
2026-04-24 19:26 48.54857 15.81489 25599 ft 387 kts 340°
2026-04-24 19:26 48.57397 15.80110 26032 ft 389 kts 340°
2026-04-24 19:26 48.59943 15.78705 26465 ft 391 kts 339°
2026-04-24 19:26 48.62495 15.77252 26888 ft 393 kts 339°
2026-04-24 19:27 48.65058 15.75766 27308 ft 395 kts 338°
2026-04-24 19:27 48.67628 15.74261 27708 ft 397 kts 338°
2026-04-24 19:27 48.70183 15.72759 28112 ft 400 kts 338°
2026-04-24 19:27 48.72782 15.71233 28509 ft 402 kts 338°
2026-04-24 19:28 48.75396 15.69703 28918 ft 404 kts 338°
2026-04-24 19:28 48.78028 15.68164 29312 ft 406 kts 338°
2026-04-24 19:28 48.80670 15.66623 29700 ft 408 kts 338°
2026-04-24 19:28 48.83331 15.65070 30081 ft 411 kts 338°
2026-04-24 19:29 48.88693 15.61932 30728 ft 414 kts 338°
2026-04-24 19:29 48.91388 15.60360 31041 ft 416 kts 338°
2026-04-24 19:29 48.94091 15.58777 31353 ft 417 kts 338°
2026-04-24 19:30 48.96811 15.57176 31660 ft 419 kts 338°
2026-04-24 19:30 48.99531 15.55570 31967 ft 420 kts 338°
2026-04-24 19:30 49.02250 15.53966 32389 ft 418 kts 338°
2026-04-24 19:30 49.04959 15.52371 32823 ft 417 kts 338°
2026-04-24 19:31 49.07656 15.50783 33253 ft 415 kts 338°
2026-04-24 19:31 49.10343 15.49201 33685 ft 413 kts 337°
2026-04-24 19:31 49.13017 15.47621 34110 ft 412 kts 337°
2026-04-24 19:31 49.15687 15.46042 34488 ft 410 kts 337°
2026-04-24 19:32 49.18339 15.44467 34834 ft 409 kts 337°
2026-04-24 19:32 49.20988 15.42891 35165 ft 408 kts 337°
2026-04-24 19:32 49.23628 15.41322 35488 ft 406 kts 337°
2026-04-24 19:32 49.26263 15.39758 35801 ft 405 kts 337°
2026-04-24 19:33 49.28891 15.38196 36038 ft 405 kts 337°
2026-04-24 19:33 49.34069 15.35105 36093 ft 395 kts 336°
2026-04-24 19:34 49.39166 15.32061 36094 ft 393 kts 336°
2026-04-24 19:34 49.44227 15.29035 36097 ft 392 kts 336°
2026-04-24 19:35 49.49307 15.25979 36095 ft 392 kts 336°
2026-04-24 19:35 49.54377 15.22916 36096 ft 392 kts 336°
2026-04-24 19:36 49.59456 15.19850 36101 ft 392 kts 336°
2026-04-24 19:36 49.64533 15.16787 36104 ft 392 kts 336°
2026-04-24 19:37 49.69604 15.13712 36107 ft 392 kts 336°
2026-04-24 19:37 49.74675 15.10628 36113 ft 391 kts 336°
2026-04-24 19:38 49.79753 15.07544 36112 ft 391 kts 336°
2026-04-24 19:38 49.84812 15.04463 36112 ft 391 kts 336°
2026-04-24 19:39 49.89870 15.01376 36110 ft 390 kts 335°
2026-04-24 19:39 49.94920 14.98280 36110 ft 390 kts 335°
2026-04-24 19:40 49.99967 14.95185 36109 ft 390 kts 335°
2026-04-24 19:40 50.05007 14.92086 36112 ft 390 kts 335°
2026-04-24 19:41 50.10052 14.88977 36115 ft 390 kts 335°
2026-04-24 19:41 50.15090 14.85858 36117 ft 390 kts 335°
2026-04-24 19:42 50.20101 14.82750 36115 ft 389 kts 335°
2026-04-24 19:42 50.25131 14.79621 36115 ft 389 kts 335°
2026-04-24 19:43 50.30159 14.76489 36115 ft 389 kts 335°
2026-04-24 19:43 50.35185 14.73357 36112 ft 388 kts 334°
2026-04-24 19:44 50.40205 14.70223 36112 ft 388 kts 334°
2026-04-24 19:44 50.45228 14.67074 36114 ft 388 kts 334°
2026-04-24 19:45 50.50244 14.63918 36117 ft 388 kts 334°
2026-04-24 19:45 50.55256 14.60770 36119 ft 388 kts 334°
2026-04-24 19:46 50.60271 14.57605 36120 ft 388 kts 334°
2026-04-24 19:46 50.65283 14.54428 36117 ft 388 kts 334°
2026-04-24 19:47 50.70297 14.51246 36113 ft 388 kts 334°
2026-04-24 19:47 50.75306 14.48065 36111 ft 388 kts 334°
2026-04-24 19:48 50.80318 14.44872 36120 ft 388 kts 333°
2026-04-24 19:48 50.87834 14.40078 36121 ft 388 kts 333°
2026-04-24 19:49 50.96849 14.31332 36127 ft 379 kts 316°
2026-04-24 19:50 51.04831 14.20376 36118 ft 379 kts 316°
2026-04-24 19:51 51.10803 14.12129 36116 ft 379 kts 316°
2026-04-24 19:52 51.16728 14.03909 36115 ft 378 kts 316°
2026-04-24 19:52 51.20697 13.98391 36108 ft 379 kts 316°
2026-04-24 19:53 51.22687 13.95618 35760 ft 380 kts 315°
2026-04-24 19:53 51.24678 13.92842 35385 ft 379 kts 315°
2026-04-24 19:53 51.28664 13.87302 34651 ft 380 kts 316°
2026-04-24 19:54 51.30689 13.84559 34289 ft 381 kts 316°
2026-04-24 19:54 51.32723 13.81846 34089 ft 382 kts 316°
2026-04-24 19:54 51.34770 13.79135 34106 ft 382 kts 316°
2026-04-24 19:55 51.38176 13.74606 34107 ft 383 kts 316°
2026-04-24 19:55 51.42952 13.68203 34103 ft 383 kts 316°
2026-04-24 19:56 51.47027 13.62719 34103 ft 382 kts 316°
2026-04-24 19:56 51.51098 13.57219 34107 ft 382 kts 316°
2026-04-24 19:57 51.55163 13.51714 34103 ft 382 kts 316°
2026-04-24 19:57 51.59219 13.46211 34105 ft 382 kts 316°
2026-04-24 19:58 51.63274 13.40702 34112 ft 381 kts 315°
2026-04-24 19:58 51.67325 13.35179 34110 ft 381 kts 315°
2026-04-24 19:59 51.71370 13.29651 34112 ft 381 kts 315°
2026-04-24 19:59 51.75412 13.24116 34112 ft 381 kts 315°
2026-04-24 20:00 51.79450 13.18571 34115 ft 381 kts 315°
2026-04-24 20:00 51.83460 13.13056 34100 ft 381 kts 315°
2026-04-24 20:01 51.87514 13.07463 34102 ft 381 kts 315°
2026-04-24 20:01 51.91513 13.01925 34116 ft 381 kts 315°
2026-04-24 20:02 51.94880 12.97250 34106 ft 380 kts 315°
2026-04-24 20:02 51.99549 12.90750 34111 ft 381 kts 315°
2026-04-24 20:03 52.03575 12.85144 34111 ft 381 kts 315°
2026-04-24 20:03 52.07596 12.79533 34111 ft 382 kts 315°
2026-04-24 20:04 52.11628 12.73891 34108 ft 382 kts 315°
2026-04-24 20:04 52.15647 12.68242 34111 ft 382 kts 315°
2026-04-24 20:05 52.19667 12.62574 34113 ft 382 kts 315°
2026-04-24 20:05 52.23691 12.56906 34115 ft 383 kts 315°
2026-04-24 20:06 52.27719 12.51221 34111 ft 383 kts 315°
2026-04-24 20:06 52.31752 12.45516 34113 ft 384 kts 315°
2026-04-24 20:07 52.35097 12.40752 34112 ft 384 kts 315°
2026-04-24 20:07 52.39807 12.34022 34111 ft 384 kts 315°
2026-04-24 20:08 52.43840 12.28269 34112 ft 385 kts 315°
2026-04-24 20:08 52.47189 12.23472 34111 ft 385 kts 315°
2026-04-24 20:09 52.51870 12.16756 34112 ft 385 kts 315°
2026-04-24 20:09 52.55902 12.10957 34108 ft 385 kts 315°
2026-04-24 20:09 52.57919 12.08042 33972 ft 386 kts 315°
2026-04-24 20:10 52.59276 12.06083 33782 ft 384 kts 315°
2026-04-24 20:10 52.61276 12.03193 33512 ft 382 kts 315°
2026-04-24 20:10 52.63269 12.00315 33243 ft 380 kts 315°
2026-04-24 20:10 52.65251 11.97450 32975 ft 379 kts 314°
2026-04-24 20:11 52.67221 11.94590 32710 ft 377 kts 314°
2026-04-24 20:11 52.69186 11.91729 32449 ft 376 kts 314°
2026-04-24 20:11 52.71140 11.88882 32190 ft 374 kts 314°
2026-04-24 20:11 52.73086 11.86046 31938 ft 373 kts 314°
2026-04-24 20:12 52.75026 11.83218 31681 ft 372 kts 314°
2026-04-24 20:12 52.76963 11.80393 31431 ft 370 kts 314°
2026-04-24 20:12 52.78888 11.77578 31182 ft 369 kts 314°
2026-04-24 20:12 52.80796 11.74783 30881 ft 364 kts 314°
2026-04-24 20:13 52.82682 11.72020 30443 ft 360 kts 314°
2026-04-24 20:13 52.84544 11.69287 29990 ft 356 kts 314°
2026-04-24 20:13 52.86387 11.66585 29542 ft 351 kts 314°
2026-04-24 20:13 52.88200 11.63923 29122 ft 346 kts 314°
2026-04-24 20:14 52.89987 11.61296 28713 ft 341 kts 314°
2026-04-24 20:14 52.91746 11.58711 28332 ft 335 kts 314°
2026-04-24 20:14 52.93479 11.56158 27948 ft 331 kts 314°
2026-04-24 20:14 52.95160 11.53672 27576 ft 326 kts 314°
2026-04-24 20:15 52.96864 11.51147 27204 ft 323 kts 314°
2026-04-24 20:15 52.98534 11.48666 26843 ft 322 kts 314°
2026-04-24 20:15 53.00198 11.46193 26478 ft 320 kts 315°
2026-04-24 20:15 53.01852 11.43736 26115 ft 319 kts 315°
2026-04-24 20:16 53.03480 11.41314 25734 ft 317 kts 315°
2026-04-24 20:16 53.05139 11.38845 25364 ft 316 kts 315°
2026-04-24 20:16 53.06777 11.36409 24978 ft 315 kts 315°
2026-04-24 20:16 53.08381 11.34019 24584 ft 313 kts 315°
2026-04-24 20:17 53.10000 11.31602 24215 ft 314 kts 315°
2026-04-24 20:17 53.13557 11.26788 23938 ft 337 kts 322°
2026-04-24 20:17 53.15482 11.24571 23417 ft 336 kts 322°
2026-04-24 20:18 53.16758 11.23110 23068 ft 335 kts 322°
2026-04-24 20:18 53.19315 11.20181 22431 ft 332 kts 322°
2026-04-24 20:18 53.21210 11.17997 21966 ft 330 kts 322°
2026-04-24 20:18 53.23092 11.15822 21531 ft 327 kts 323°
2026-04-24 20:19 53.24956 11.13668 21096 ft 325 kts 323°
2026-04-24 20:19 53.26816 11.11519 20678 ft 323 kts 323°
2026-04-24 20:19 53.28662 11.09383 20241 ft 321 kts 323°
2026-04-24 20:19 53.30494 11.07258 19826 ft 319 kts 323°
2026-04-24 20:20 53.32310 11.05146 19418 ft 318 kts 323°
2026-04-24 20:20 53.34119 11.03036 19021 ft 316 kts 323°
2026-04-24 20:20 53.35919 11.00936 18638 ft 314 kts 323°
2026-04-24 20:20 53.37699 10.98857 18092 ft 310 kts 323°
2026-04-24 20:21 53.39459 10.96798 17430 ft 307 kts 323°
2026-04-24 20:21 53.41201 10.94762 16818 ft 303 kts 323°
2026-04-24 20:21 53.42923 10.92751 16231 ft 299 kts 323°
2026-04-24 20:21 53.44621 10.90766 15661 ft 296 kts 323°
2026-04-24 20:22 53.46298 10.88799 15102 ft 292 kts 323°
2026-04-24 20:22 53.47953 10.86856 14550 ft 289 kts 323°
2026-04-24 20:22 53.49568 10.84961 14024 ft 285 kts 323°
2026-04-24 20:22 53.51065 10.82828 13455 ft 282 kts 307°
2026-04-24 20:23 53.51867 10.79847 13106 ft 284 kts 283°
2026-04-24 20:23 53.51776 10.76533 12790 ft 289 kts 259°
2026-04-24 20:23 53.51140 10.73339 12495 ft 288 kts 255°
2026-04-24 20:23 53.50443 10.70200 12137 ft 287 kts 255°
2026-04-24 20:24 53.49738 10.67077 11784 ft 286 kts 255°
2026-04-24 20:24 53.49032 10.63961 11430 ft 285 kts 255°
2026-04-24 20:24 53.48328 10.60860 11073 ft 284 kts 255°
2026-04-24 20:24 53.47622 10.57764 10724 ft 283 kts 255°
2026-04-24 20:25 53.46917 10.54684 10365 ft 282 kts 255°
2026-04-24 20:25 53.46211 10.51615 10135 ft 282 kts 255°
2026-04-24 20:25 53.45504 10.48542 10129 ft 283 kts 255°
2026-04-24 20:25 53.44805 10.45495 10136 ft 283 kts 255°
2026-04-24 20:26 53.44097 10.42409 10134 ft 284 kts 254°
2026-04-24 20:26 53.43390 10.39326 10138 ft 283 kts 255°
2026-04-24 20:26 53.42683 10.36236 10090 ft 284 kts 255°
2026-04-24 20:26 53.41973 10.33149 9830 ft 283 kts 254°
2026-04-24 20:27 53.41270 10.30083 9566 ft 282 kts 254°
2026-04-24 20:27 53.40684 10.26978 9296 ft 274 kts 268°
2026-04-24 20:27 53.40881 10.23902 9043 ft 263 kts 295°
2026-04-24 20:27 53.41909 10.21446 8784 ft 258 kts 322°
2026-04-24 20:28 53.43447 10.19917 8533 ft 258 kts 333°
2026-04-24 20:28 53.45069 10.18619 8278 ft 258 kts 334°
2026-04-24 20:28 53.46693 10.17348 8035 ft 257 kts 334°
2026-04-24 20:28 53.48310 10.16090 7777 ft 253 kts 334°
2026-04-24 20:29 53.49361 10.15280 7613 ft 249 kts 336°
2026-04-24 20:29 53.51592 10.14897 7283 ft 246 kts 12°
2026-04-24 20:29 53.53064 10.16325 7051 ft 248 kts 39°
2026-04-24 20:29 53.54232 10.18438 6800 ft 245 kts 44°
2026-04-24 20:30 53.55332 10.20590 6556 ft 241 kts 44°
2026-04-24 20:30 53.56414 10.22728 6303 ft 239 kts 44°
2026-04-24 20:30 53.57484 10.24858 6053 ft 238 kts 44°
2026-04-24 20:30 53.58546 10.26978 5795 ft 237 kts 44°
2026-04-24 20:31 53.59603 10.29094 5540 ft 236 kts 44°
2026-04-24 20:31 53.60656 10.31212 5293 ft 235 kts 44°
2026-04-24 20:31 53.61698 10.33317 5078 ft 233 kts 44°
2026-04-24 20:31 53.62734 10.35413 5005 ft 233 kts 44°
2026-04-24 20:32 53.63776 10.37522 5004 ft 234 kts 44°
2026-04-24 20:32 53.64818 10.39638 5008 ft 234 kts 44°
2026-04-24 20:32 53.65856 10.41754 4992 ft 235 kts 44°
2026-04-24 20:32 53.66897 10.43870 4988 ft 235 kts 44°
2026-04-24 20:33 53.67938 10.45996 4991 ft 234 kts 44°
2026-04-24 20:33 53.68973 10.48121 4986 ft 235 kts 45°
2026-04-24 20:33 53.70015 10.50254 4987 ft 235 kts 44°
2026-04-24 20:33 53.71055 10.52380 4985 ft 235 kts 44°
2026-04-24 20:34 53.72095 10.54505 4983 ft 235 kts 44°
2026-04-24 20:34 53.73263 10.56340 4984 ft 225 kts 21°
2026-04-24 20:34 53.74736 10.56849 4983 ft 214 kts 349°
2026-04-24 20:34 53.76094 10.55947 4985 ft 211 kts 328°
2026-04-24 20:35 53.77322 10.54573 4987 ft 212 kts 325°
2026-04-24 20:35 53.78452 10.52987 4987 ft 212 kts 307°
2026-04-24 20:35 53.78964 10.50661 4801 ft 217 kts 277°
2026-04-24 20:35 53.78824 10.48086 4486 ft 221 kts 266°
2026-04-24 20:36 53.78546 10.45513 4225 ft 223 kts 265°
2026-04-24 20:36 53.78249 10.42936 3966 ft 223 kts 264°
2026-04-24 20:36 53.77946 10.40365 3724 ft 222 kts 264°
2026-04-24 20:36 53.77642 10.37809 3475 ft 222 kts 264°
2026-04-24 20:37 53.77331 10.35256 3220 ft 221 kts 264°
2026-04-24 20:37 53.77018 10.32723 3031 ft 220 kts 264°
2026-04-24 20:37 53.76708 10.30196 3003 ft 220 kts 264°
2026-04-24 20:37 53.76399 10.27690 3004 ft 221 kts 264°
2026-04-24 20:38 53.75932 10.25173 3002 ft 228 kts 244°
2026-04-24 20:38 53.74946 10.23021 3006 ft 231 kts 236°
2026-04-24 20:38 53.73951 10.21034 3003 ft 218 kts 236°
2026-04-24 20:38 53.73010 10.19130 2953 ft 206 kts 237°
2026-04-24 20:39 53.72100 10.17267 2743 ft 205 kts 237°
2026-04-24 20:39 53.71186 10.15398 2482 ft 207 kts 237°
2026-04-24 20:39 53.70272 10.13534 2225 ft 203 kts 237°
2026-04-24 20:39 53.69401 10.11767 1941 ft 188 kts 237°
2026-04-24 20:40 53.68601 10.10140 1675 ft 173 kts 236°
2026-04-24 20:40 53.67873 10.08661 1468 ft 153 kts 237°
2026-04-24 20:40 53.67227 10.07349 1244 ft 138 kts 238°
2026-04-24 20:40 53.66637 10.06146 1049 ft 130 kts 237°
2026-04-24 20:41 53.66083 10.04999 848 ft 124 kts 238°
2026-04-24 20:41 53.65552 10.03878 700 ft 122 kts 237°
2026-04-24 20:41 53.65010 10.02778 523 ft 122 kts 235°
2026-04-24 20:41 53.64465 10.01703 334 ft 120 kts 235°
2026-04-24 20:42 53.63925 10.00630 193 ft 120 kts 236°
2026-04-24 20:42 53.63392 9.99545 48 ft 113 kts 236°
2026-04-24 20:42 53.62991 9.98692 45 ft 69 kts 228°
2026-04-24 20:42 53.62777 9.98258 43 ft 40 kts 232°
2026-04-24 20:43 53.62607 9.97918 41 ft 36 kts 229°
2026-04-24 20:43 53.62456 9.97806 42 ft 21 kts 147°
2026-04-24 20:43 53.62431 9.97962 47 ft 12 kts 79°
2026-04-24 20:43 53.62463 9.98085 47 ft 11 kts 58°
2026-04-24 20:44 53.62508 9.98184 47 ft 10 kts 51°
2026-04-24 20:44 53.62552 9.98273 47 ft 9 kts 50°
2026-04-24 20:44 53.62592 9.98354 47 ft 9 kts 50°
2026-04-24 20:44 53.62634 9.98438 47 ft 14 kts 50°
2026-04-24 20:45 53.62724 9.98616 47 ft 23 kts 51°
2026-04-24 20:45 53.62829 9.98830 47 ft 25 kts 50°
2026-04-24 20:45 53.62933 9.99041 47 ft 21 kts 49°
2026-04-24 20:45 53.63009 9.99197 47 ft 15 kts 51°
2026-04-24 20:46 53.63062 9.99314 47 ft 9 kts 54°
2026-04-24 20:46 53.63069 9.99331 47 ft 0 kts 54°
2026-04-24 20:46 53.63070 9.99332 47 ft 0 kts 54°
2026-04-24 20:48 53.63103 9.99414 46 ft 16 kts 56°
2026-04-24 20:48 53.63188 9.99611 47 ft 25 kts 50°
2026-04-24 20:48 53.63310 9.99824 48 ft 25 kts 49°
2026-04-24 20:49 53.63406 10.00020 49 ft 15 kts 50°
2026-04-24 20:49 53.63406 10.00147 46 ft 9 kts 149°
2026-04-24 20:49 53.63344 10.00164 47 ft 9 kts 174°
2026-04-24 20:49 53.63289 10.00197 48 ft 8 kts 133°
2026-04-24 20:50 53.63289 10.00283 48 ft 7 kts 86°
2026-04-24 20:50 53.63292 10.00350 48 ft 0 kts 86°
2026-04-24 20:50 53.63292 10.00356 48 ft 0 kts 86°